{"data":{"norad_id":58217,"intl_designator":"2023-170M","name":"STARLINK-30818","alt_names":[],"object_type":"PAYLOAD","status":"ACTIVE","operator":null,"country":"US","launch_date":"2023-11-03","launch_site_code":"AFETR","launch_vehicle":null,"mission":null,"orbit_class":"UNKNOWN","rcs_meters":null,"size_class":null,"mass_kg":null,"dimensions":null,"purposes":["comms"],"wikipedia_slug":null,"has_3d_model":false,"image_url":null,"decayed_at":null,"tle_current":{"epoch":"2026-09-20T02:23:36.379104Z","epoch_age_seconds":178232,"freshness":"STALE","line1":"1 58217U 23170M   26263.09972661  .00000549  00000+0  29493-4 0  9993","line2":"2 58217  43.0021 176.1563 0001896 259.1346 100.9293 15.27577188160033","mean_motion":15.27577188,"eccentricity":0.0001896,"inclination_deg":43.0021,"raan_deg":176.1563,"arg_perigee_deg":259.1346,"mean_anomaly_deg":100.9293,"bstar":2.9493e-5,"rev_number":16003,"period_min":94.266922242099,"perigee_km":481.75663371191,"apogee_km":484.35839867245,"semimajor_km":6861.1945161922,"source":"CELESTRAK","updated_at":"2026-09-21T09:00:33.833167Z"}}}